owner,sensor,date,latitude,longitude,air_temperature,qcFlag 
DISL,ioos:station:DISL:MHPA:1,2012-10-01T00:00:00Z,30.6671,-87.9365,26.59,1111122 
DISL,ioos:station:DISL:MHPA:1,2012-10-01T00:30:00Z,30.6671,-87.9365,26.89,1111122 
DISL,ioos:station:DISL:MHPA:1,2012-10-01T01:00:00Z,30.6671,-87.9365,27.31,1111122 
DISL,ioos:station:DISL:MHPA:1,2012-10-01T01:30:00Z,30.6671,-87.9365,26.9,1111122 
DISL,ioos:station:DISL:MHPA:1,2012-10-01T02:00:00Z,30.6671,-87.9365,26.44,1111122 
DISL,ioos:station:DISL:MHPA:1,2012-10-01T02:30:00Z,30.6671,-87.9365,26.33,1111122 
DISL,ioos:station:DISL:MHPA:1,2012-10-01T03:00:00Z,30.6671,-87.9365,26.21,1111122 
DISL,ioos:station:DISL:MHPA:1,2012-10-01T03:30:00Z,30.6671,-87.9365,25.91,1111122 
DISL,ioos:station:DISL:MHPA:1,2012-10-01T04:00:00Z,30.6671,-87.9365,25.64,1111122 
DISL,ioos:station:DISL:MHPA:1,2012-10-01T04:30:00Z,30.6671,-87.9365,26.82,1111122 
DISL,ioos:station:DISL:MHPA:1,2012-10-01T05:00:00Z,30.6671,-87.9365,26.91,1111122 
DISL,ioos:station:DISL:MHPA:1,2012-10-01T05:30:00Z,30.6671,-87.9365,24.81,1111122 
DISL,ioos:station:DISL:MHPA:1,2012-10-01T06:00:00Z,30.6671,-87.9365,24.89,1111122 
DISL,ioos:station:DISL:MHPA:1,2012-10-01T06:30:00Z,30.6671,-87.9365,25.35,1111122 
DISL,ioos:station:DISL:MHPA:1,2012-10-01T07:00:00Z,30.6671,-87.9365,26.17,1111122 
DISL,ioos:station:DISL:MHPA:1,2012-10-01T07:30:00Z,30.6671,-87.9365,26.52,1111122 
DISL,ioos:station:DISL:MHPA:1,2012-10-01T08:00:00Z,30.6671,-87.9365,26.7,1111122 
DISL,ioos:station:DISL:MHPA:1,2012-10-01T08:30:00Z,30.6671,-87.9365,26.75,1111122 
DISL,ioos:station:DISL:MHPA:1,2012-10-01T09:00:00Z,30.6671,-87.9365,26.81,1111122 
DISL,ioos:station:DISL:MHPA:1,2012-10-01T09:30:00Z,30.6671,-87.9365,26.48,1111122 
DISL,ioos:station:DISL:MHPA:1,2012-10-01T10:00:00Z,30.6671,-87.9365,26.23,1111122 
DISL,ioos:station:DISL:MHPA:1,2012-10-01T10:30:00Z,30.6671,-87.9365,26.0,1111122 
DISL,ioos:station:DISL:MHPA:1,2012-10-01T11:00:00Z,30.6671,-87.9365,25.76,1111122 
DISL,ioos:station:DISL:MHPA:1,2012-10-01T11:30:00Z,30.6671,-87.9365,25.75,1111122 
DISL,ioos:station:DISL:MHPA:1,2012-10-01T12:00:00Z,30.6671,-87.9365,25.65,1111122 
DISL,ioos:station:DISL:MHPA:1,2012-10-01T12:30:00Z,30.6671,-87.9365,25.35,1111122 
DISL,ioos:station:DISL:MHPA:1,2012-10-01T13:00:00Z,30.6671,-87.9365,25.3,1111122 
DISL,ioos:station:DISL:MHPA:1,2012-10-01T13:30:00Z,30.6671,-87.9365,25.11,1111122 
DISL,ioos:station:DISL:MHPA:1,2012-10-01T14:00:00Z,30.6671,-87.9365,24.4,1111122 
DISL,ioos:station:DISL:MHPA:1,2012-10-01T14:30:00Z,30.6671,-87.9365,24.21,1111122 
DISL,ioos:station:DISL:MHPA:1,2012-10-01T15:00:00Z,30.6671,-87.9365,24.14,1111122 
DISL,ioos:station:DISL:MHPA:1,2012-10-01T15:30:00Z,30.6671,-87.9365,24.39,1111122 
DISL,ioos:station:DISL:MHPA:1,2012-10-01T16:00:00Z,30.6671,-87.9365,23.77,1111122 
DISL,ioos:station:DISL:MHPA:1,2012-10-01T16:30:00Z,30.6671,-87.9365,23.48,1111122 
DISL,ioos:station:DISL:MHPA:1,2012-10-01T17:00:00Z,30.6671,-87.9365,23.85,1111122 
DISL,ioos:station:DISL:MHPA:1,2012-10-01T17:30:00Z,30.6671,-87.9365,23.74,1111122 
DISL,ioos:station:DISL:MHPA:1,2012-10-01T18:00:00Z,30.6671,-87.9365,23.36,1111122 
DISL,ioos:station:DISL:MHPA:1,2012-10-01T18:30:00Z,30.6671,-87.9365,23.33,1111122 
DISL,ioos:station:DISL:MHPA:1,2012-10-01T19:00:00Z,30.6671,-87.9365,23.62,1111122 
DISL,ioos:station:DISL:MHPA:1,2012-10-01T19:30:00Z,30.6671,-87.9365,23.79,1111122 
DISL,ioos:station:DISL:MHPA:1,2012-10-01T20:00:00Z,30.6671,-87.9365,23.35,1111122 
DISL,ioos:station:DISL:MHPA:1,2012-10-01T20:30:00Z,30.6671,-87.9365,23.37,1111122 
DISL,ioos:station:DISL:MHPA:1,2012-10-01T21:00:00Z,30.6671,-87.9365,23.29,1111122 
DISL,ioos:station:DISL:MHPA:1,2012-10-01T21:30:00Z,30.6671,-87.9365,22.86,1111122 
DISL,ioos:station:DISL:MHPA:1,2012-10-01T22:00:00Z,30.6671,-87.9365,22.89,1111122 
DISL,ioos:station:DISL:MHPA:1,2012-10-01T22:30:00Z,30.6671,-87.9365,22.15,1111122 
DISL,ioos:station:DISL:MHPA:1,2012-10-01T23:00:00Z,30.6671,-87.9365,21.92,1111122 
DISL,ioos:station:DISL:MHPA:1,2012-10-01T23:30:00Z,30.6671,-87.9365,21.53,1111122 
DISL,ioos:station:DISL:MHPA:1,2012-10-02T00:00:00Z,30.6671,-87.9365,20.92,1111122 
DISL,ioos:station:DISL:MHPA:1,2012-10-02T00:30:00Z,30.6671,-87.9365,20.18,1111122 
DISL,ioos:station:DISL:MHPA:1,2012-10-02T01:00:00Z,30.6671,-87.9365,19.77,1111122 
DISL,ioos:station:DISL:MHPA:1,2012-10-02T01:30:00Z,30.6671,-87.9365,19.55,1111122 
DISL,ioos:station:DISL:MHPA:1,2012-10-02T02:00:00Z,30.6671,-87.9365,19.54,1111122 
DISL,ioos:station:DISL:MHPA:1,2012-10-02T02:30:00Z,30.6671,-87.9365,19.44,1111122 
DISL,ioos:station:DISL:MHPA:1,2012-10-02T03:00:00Z,30.6671,-87.9365,19.62,1111122 
DISL,ioos:station:DISL:MHPA:1,2012-10-02T03:30:00Z,30.6671,-87.9365,19.44,1111122 
DISL,ioos:station:DISL:MHPA:1,2012-10-02T04:00:00Z,30.6671,-87.9365,19.45,1111122 
DISL,ioos:station:DISL:MHPA:1,2012-10-02T04:30:00Z,30.6671,-87.9365,19.38,1111122 
DISL,ioos:station:DISL:MHPA:1,2012-10-02T05:00:00Z,30.6671,-87.9365,19.19,1111122 
DISL,ioos:station:DISL:MHPA:1,2012-10-02T05:30:00Z,30.6671,-87.9365,19.32,1111122 
DISL,ioos:station:DISL:MHPA:1,2012-10-02T06:00:00Z,30.6671,-87.9365,19.15,1111122 
DISL,ioos:station:DISL:MHPA:1,2012-10-02T06:30:00Z,30.6671,-87.9365,19.27,1111122 
DISL,ioos:station:DISL:MHPA:1,2012-10-02T07:00:00Z,30.6671,-87.9365,19.41,1111122 
DISL,ioos:station:DISL:MHPA:1,2012-10-02T07:30:00Z,30.6671,-87.9365,19.19,1111122 
DISL,ioos:station:DISL:MHPA:1,2012-10-02T08:00:00Z,30.6671,-87.9365,19.06,1111122 
DISL,ioos:station:DISL:MHPA:1,2012-10-02T08:30:00Z,30.6671,-87.9365,19.02,1111122 
DISL,ioos:station:DISL:MHPA:1,2012-10-02T09:00:00Z,30.6671,-87.9365,19.23,1111122 
DISL,ioos:station:DISL:MHPA:1,2012-10-02T09:30:00Z,30.6671,-87.9365,19.06,1111122 
DISL,ioos:station:DISL:MHPA:1,2012-10-02T10:00:00Z,30.6671,-87.9365,19.07,1111122 
DISL,ioos:station:DISL:MHPA:1,2012-10-02T10:30:00Z,30.6671,-87.9365,19.07,1111122 
DISL,ioos:station:DISL:MHPA:1,2012-10-02T11:00:00Z,30.6671,-87.9365,18.89,1111122 
DISL,ioos:station:DISL:MHPA:1,2012-10-02T11:30:00Z,30.6671,-87.9365,19.04,1111122 
DISL,ioos:station:DISL:MHPA:1,2012-10-02T12:00:00Z,30.6671,-87.9365,18.79,1111122 
DISL,ioos:station:DISL:MHPA:1,2012-10-02T12:30:00Z,30.6671,-87.9365,18.85,1111122 
DISL,ioos:station:DISL:MHPA:1,2012-10-02T13:00:00Z,30.6671,-87.9365,18.74,1111122 
DISL,ioos:station:DISL:MHPA:1,2012-10-02T13:30:00Z,30.6671,-87.9365,18.91,1111122 
DISL,ioos:station:DISL:MHPA:1,2012-10-02T14:00:00Z,30.6671,-87.9365,19.26,1111122 
DISL,ioos:station:DISL:MHPA:1,2012-10-02T14:30:00Z,30.6671,-87.9365,19.46,1111122 
DISL,ioos:station:DISL:MHPA:1,2012-10-02T15:00:00Z,30.6671,-87.9365,19.61,1111122 
DISL,ioos:station:DISL:MHPA:1,2012-10-02T15:30:00Z,30.6671,-87.9365,20.07,1111122 
DISL,ioos:station:DISL:MHPA:1,2012-10-02T16:00:00Z,30.6671,-87.9365,20.55,1111122 
DISL,ioos:station:DISL:MHPA:1,2012-10-02T16:30:00Z,30.6671,-87.9365,21.11,1111122 
DISL,ioos:station:DISL:MHPA:1,2012-10-02T17:00:00Z,30.6671,-87.9365,21.54,1111122 
DISL,ioos:station:DISL:MHPA:1,2012-10-02T17:30:00Z,30.6671,-87.9365,22.11,1111122 
DISL,ioos:station:DISL:MHPA:1,2012-10-02T18:00:00Z,30.6671,-87.9365,22.65,1111122 
DISL,ioos:station:DISL:MHPA:1,2012-10-02T18:30:00Z,30.6671,-87.9365,23.04,1111122 
DISL,ioos:station:DISL:MHPA:1,2012-10-02T19:00:00Z,30.6671,-87.9365,23.55,1111122 
DISL,ioos:station:DISL:MHPA:1,2012-10-02T19:30:00Z,30.6671,-87.9365,23.83,1111122 
DISL,ioos:station:DISL:MHPA:1,2012-10-02T20:00:00Z,30.6671,-87.9365,24.1,1111122 
DISL,ioos:station:DISL:MHPA:1,2012-10-02T20:30:00Z,30.6671,-87.9365,24.13,1111122 
DISL,ioos:station:DISL:MHPA:1,2012-10-02T21:00:00Z,30.6671,-87.9365,24.68,1111122 
DISL,ioos:station:DISL:MHPA:1,2012-10-02T21:30:00Z,30.6671,-87.9365,24.61,1111122 
DISL,ioos:station:DISL:MHPA:1,2012-10-02T22:00:00Z,30.6671,-87.9365,25.04,1111122 
DISL,ioos:station:DISL:MHPA:1,2012-10-02T22:30:00Z,30.6671,-87.9365,24.97,1111122 
DISL,ioos:station:DISL:MHPA:1,2012-10-02T23:00:00Z,30.6671,-87.9365,24.71,1111122 
DISL,ioos:station:DISL:MHPA:1,2012-10-02T23:30:00Z,30.6671,-87.9365,23.76,1111122 
DISL,ioos:station:DISL:MHPA:1,2012-10-03T00:00:00Z,30.6671,-87.9365,22.93,1111122 
DISL,ioos:station:DISL:MHPA:1,2012-10-03T00:30:00Z,30.6671,-87.9365,22.48,1111122 
DISL,ioos:station:DISL:MHPA:1,2012-10-03T01:00:00Z,30.6671,-87.9365,21.7,1111122 
DISL,ioos:station:DISL:MHPA:1,2012-10-03T01:30:00Z,30.6671,-87.9365,21.18,1111122 
DISL,ioos:station:DISL:MHPA:1,2012-10-03T02:00:00Z,30.6671,-87.9365,20.89,1111122 
DISL,ioos:station:DISL:MHPA:1,2012-10-03T02:30:00Z,30.6671,-87.9365,20.9,1111122 
DISL,ioos:station:DISL:MHPA:1,2012-10-03T03:00:00Z,30.6671,-87.9365,20.9,1111122 
DISL,ioos:station:DISL:MHPA:1,2012-10-03T03:30:00Z,30.6671,-87.9365,20.56,1111122 
DISL,ioos:station:DISL:MHPA:1,2012-10-03T04:00:00Z,30.6671,-87.9365,20.12,1111122 
DISL,ioos:station:DISL:MHPA:1,2012-10-03T04:30:00Z,30.6671,-87.9365,19.72,1111122 
DISL,ioos:station:DISL:MHPA:1,2012-10-03T05:00:00Z,30.6671,-87.9365,19.36,1111122 
DISL,ioos:station:DISL:MHPA:1,2012-10-03T05:30:00Z,30.6671,-87.9365,19.0,1111122 
DISL,ioos:station:DISL:MHPA:1,2012-10-03T06:00:00Z,30.6671,-87.9365,18.9,1111122 
DISL,ioos:station:DISL:MHPA:1,2012-10-03T06:30:00Z,30.6671,-87.9365,18.83,1111122 
DISL,ioos:station:DISL:MHPA:1,2012-10-03T07:00:00Z,30.6671,-87.9365,18.74,1111122 
DISL,ioos:station:DISL:MHPA:1,2012-10-03T07:30:00Z,30.6671,-87.9365,18.76,1111122 
DISL,ioos:station:DISL:MHPA:1,2012-10-03T08:00:00Z,30.6671,-87.9365,18.86,1111122 
DISL,ioos:station:DISL:MHPA:1,2012-10-03T08:30:00Z,30.6671,-87.9365,18.71,1111122 
DISL,ioos:station:DISL:MHPA:1,2012-10-03T09:00:00Z,30.6671,-87.9365,18.42,1111122 
DISL,ioos:station:DISL:MHPA:1,2012-10-03T09:30:00Z,30.6671,-87.9365,18.12,1111122 
DISL,ioos:station:DISL:MHPA:1,2012-10-03T10:00:00Z,30.6671,-87.9365,18.1,1111122 
DISL,ioos:station:DISL:MHPA:1,2012-10-03T10:30:00Z,30.6671,-87.9365,18.04,1111122 
DISL,ioos:station:DISL:MHPA:1,2012-10-03T11:00:00Z,30.6671,-87.9365,18.1,1111122 
DISL,ioos:station:DISL:MHPA:1,2012-10-03T11:30:00Z,30.6671,-87.9365,18.2,1111122 
DISL,ioos:station:DISL:MHPA:1,2012-10-03T12:00:00Z,30.6671,-87.9365,17.96,1111122 
DISL,ioos:station:DISL:MHPA:1,2012-10-03T12:30:00Z,30.6671,-87.9365,18.12,1111122 
DISL,ioos:station:DISL:MHPA:1,2012-10-03T13:00:00Z,30.6671,-87.9365,18.42,1111122 
DISL,ioos:station:DISL:MHPA:1,2012-10-03T13:30:00Z,30.6671,-87.9365,19.25,1111122 
DISL,ioos:station:DISL:MHPA:1,2012-10-03T14:00:00Z,30.6671,-87.9365,20.12,1111122 
DISL,ioos:station:DISL:MHPA:1,2012-10-03T14:30:00Z,30.6671,-87.9365,20.41,1111122 
DISL,ioos:station:DISL:MHPA:1,2012-10-03T15:00:00Z,30.6671,-87.9365,21.41,1111122 
DISL,ioos:station:DISL:MHPA:1,2012-10-03T15:30:00Z,30.6671,-87.9365,22.18,1111122 
DISL,ioos:station:DISL:MHPA:1,2012-10-03T16:00:00Z,30.6671,-87.9365,23.44,1111122 
DISL,ioos:station:DISL:MHPA:1,2012-10-03T16:30:00Z,30.6671,-87.9365,23.86,1111122 
DISL,ioos:station:DISL:MHPA:1,2012-10-03T17:00:00Z,30.6671,-87.9365,24.77,1111122 
DISL,ioos:station:DISL:MHPA:1,2012-10-03T17:30:00Z,30.6671,-87.9365,24.9,1111122 
DISL,ioos:station:DISL:MHPA:1,2012-10-03T18:00:00Z,30.6671,-87.9365,24.64,1111122 
DISL,ioos:station:DISL:MHPA:1,2012-10-03T18:30:00Z,30.6671,-87.9365,24.76,1111122 
DISL,ioos:station:DISL:MHPA:1,2012-10-03T19:00:00Z,30.6671,-87.9365,25.1,1111122 
DISL,ioos:station:DISL:MHPA:1,2012-10-03T19:30:00Z,30.6671,-87.9365,25.17,1111122 
DISL,ioos:station:DISL:MHPA:1,2012-10-03T20:00:00Z,30.6671,-87.9365,25.45,1111122 
DISL,ioos:station:DISL:MHPA:1,2012-10-03T20:30:00Z,30.6671,-87.9365,25.89,1111122 
DISL,ioos:station:DISL:MHPA:1,2012-10-03T21:00:00Z,30.6671,-87.9365,26.18,1111122 
DISL,ioos:station:DISL:MHPA:1,2012-10-03T21:30:00Z,30.6671,-87.9365,26.39,1111122 
DISL,ioos:station:DISL:MHPA:1,2012-10-03T22:00:00Z,30.6671,-87.9365,26.41,1111122 
DISL,ioos:station:DISL:MHPA:1,2012-10-03T22:30:00Z,30.6671,-87.9365,26.18,1111122 
DISL,ioos:station:DISL:MHPA:1,2012-10-03T23:00:00Z,30.6671,-87.9365,26.05,1111122 
DISL,ioos:station:DISL:MHPA:1,2012-10-03T23:30:00Z,30.6671,-87.9365,25.0,1111122 
DISL,ioos:station:DISL:MHPA:1,2012-10-04T00:00:00Z,30.6671,-87.9365,24.17,1111122 
DISL,ioos:station:DISL:MHPA:1,2012-10-04T00:30:00Z,30.6671,-87.9365,23.47,1111122 
DISL,ioos:station:DISL:MHPA:1,2012-10-04T01:00:00Z,30.6671,-87.9365,22.7,1111122 
DISL,ioos:station:DISL:MHPA:1,2012-10-04T01:30:00Z,30.6671,-87.9365,22.61,1111122 
DISL,ioos:station:DISL:MHPA:1,2012-10-04T02:00:00Z,30.6671,-87.9365,22.29,1111122 
DISL,ioos:station:DISL:MHPA:1,2012-10-04T02:30:00Z,30.6671,-87.9365,22.06,1111122 
DISL,ioos:station:DISL:MHPA:1,2012-10-04T03:00:00Z,30.6671,-87.9365,21.86,1111122 
DISL,ioos:station:DISL:MHPA:1,2012-10-04T03:30:00Z,30.6671,-87.9365,21.55,1111122 
DISL,ioos:station:DISL:MHPA:1,2012-10-04T04:00:00Z,30.6671,-87.9365,21.42,1111122 
DISL,ioos:station:DISL:MHPA:1,2012-10-04T04:30:00Z,30.6671,-87.9365,21.52,1111122 
DISL,ioos:station:DISL:MHPA:1,2012-10-04T05:00:00Z,30.6671,-87.9365,20.93,1111122 
DISL,ioos:station:DISL:MHPA:1,2012-10-04T05:30:00Z,30.6671,-87.9365,21.13,1111122 
DISL,ioos:station:DISL:MHPA:1,2012-10-04T06:00:00Z,30.6671,-87.9365,21.13,1111122 
DISL,ioos:station:DISL:MHPA:1,2012-10-04T06:30:00Z,30.6671,-87.9365,20.44,1111122 
DISL,ioos:station:DISL:MHPA:1,2012-10-04T07:00:00Z,30.6671,-87.9365,19.78,1111122 
DISL,ioos:station:DISL:MHPA:1,2012-10-04T07:30:00Z,30.6671,-87.9365,19.77,1111122 
DISL,ioos:station:DISL:MHPA:1,2012-10-04T08:00:00Z,30.6671,-87.9365,20.04,1111122 
DISL,ioos:station:DISL:MHPA:1,2012-10-04T08:30:00Z,30.6671,-87.9365,19.57,1111122 
DISL,ioos:station:DISL:MHPA:1,2012-10-04T09:00:00Z,30.6671,-87.9365,19.34,1111122 
DISL,ioos:station:DISL:MHPA:1,2012-10-04T09:30:00Z,30.6671,-87.9365,19.25,1111122 
DISL,ioos:station:DISL:MHPA:1,2012-10-04T10:00:00Z,30.6671,-87.9365,19.15,1111122 
DISL,ioos:station:DISL:MHPA:1,2012-10-04T10:30:00Z,30.6671,-87.9365,19.09,1111122 
DISL,ioos:station:DISL:MHPA:1,2012-10-04T11:00:00Z,30.6671,-87.9365,18.87,1111122 
DISL,ioos:station:DISL:MHPA:1,2012-10-04T11:30:00Z,30.6671,-87.9365,18.69,1111122 
DISL,ioos:station:DISL:MHPA:1,2012-10-04T12:00:00Z,30.6671,-87.9365,18.7,1111122 
DISL,ioos:station:DISL:MHPA:1,2012-10-04T12:30:00Z,30.6671,-87.9365,19.17,1111122 
DISL,ioos:station:DISL:MHPA:1,2012-10-04T13:00:00Z,30.6671,-87.9365,19.36,1111122 
DISL,ioos:station:DISL:MHPA:1,2012-10-04T13:30:00Z,30.6671,-87.9365,20.22,1111122 
DISL,ioos:station:DISL:MHPA:1,2012-10-04T14:00:00Z,30.6671,-87.9365,21.27,1111122 
DISL,ioos:station:DISL:MHPA:1,2012-10-04T14:30:00Z,30.6671,-87.9365,22.75,1111122 
DISL,ioos:station:DISL:MHPA:1,2012-10-04T15:00:00Z,30.6671,-87.9365,23.4,1111122 
DISL,ioos:station:DISL:MHPA:1,2012-10-04T15:30:00Z,30.6671,-87.9365,24.25,1111122 
DISL,ioos:station:DISL:MHPA:1,2012-10-04T16:00:00Z,30.6671,-87.9365,25.18,1111122 
DISL,ioos:station:DISL:MHPA:1,2012-10-04T16:30:00Z,30.6671,-87.9365,25.8,1111122 
DISL,ioos:station:DISL:MHPA:1,2012-10-04T17:00:00Z,30.6671,-87.9365,26.31,1111122 
DISL,ioos:station:DISL:MHPA:1,2012-10-04T17:30:00Z,30.6671,-87.9365,26.89,1111122 
DISL,ioos:station:DISL:MHPA:1,2012-10-04T18:00:00Z,30.6671,-87.9365,27.63,1111122 
DISL,ioos:station:DISL:MHPA:1,2012-10-04T18:30:00Z,30.6671,-87.9365,27.92,1111122 
DISL,ioos:station:DISL:MHPA:1,2012-10-04T19:00:00Z,30.6671,-87.9365,28.33,1111122 
DISL,ioos:station:DISL:MHPA:1,2012-10-04T19:30:00Z,30.6671,-87.9365,28.99,1111122 
DISL,ioos:station:DISL:MHPA:1,2012-10-04T20:00:00Z,30.6671,-87.9365,29.14,1111122 
DISL,ioos:station:DISL:MHPA:1,2012-10-04T20:30:00Z,30.6671,-87.9365,29.26,1111122 
DISL,ioos:station:DISL:MHPA:1,2012-10-04T21:00:00Z,30.6671,-87.9365,29.4,1111122 
DISL,ioos:station:DISL:MHPA:1,2012-10-04T21:30:00Z,30.6671,-87.9365,29.41,1111122 
DISL,ioos:station:DISL:MHPA:1,2012-10-04T22:00:00Z,30.6671,-87.9365,29.43,1111122 
DISL,ioos:station:DISL:MHPA:1,2012-10-04T22:30:00Z,30.6671,-87.9365,29.7,1111122 
DISL,ioos:station:DISL:MHPA:1,2012-10-04T23:00:00Z,30.6671,-87.9365,29.03,1111122 
DISL,ioos:station:DISL:MHPA:1,2012-10-04T23:30:00Z,30.6671,-87.9365,27.69,1111122 
DISL,ioos:station:DISL:MHPA:1,2012-10-05T00:00:00Z,30.6671,-87.9365,26.19,1111122 
DISL,ioos:station:DISL:MHPA:1,2012-10-05T00:30:00Z,30.6671,-87.9365,25.49,1111122 
DISL,ioos:station:DISL:MHPA:1,2012-10-05T01:00:00Z,30.6671,-87.9365,24.93,1111122 
DISL,ioos:station:DISL:MHPA:1,2012-10-05T01:30:00Z,30.6671,-87.9365,24.36,1111122 
DISL,ioos:station:DISL:MHPA:1,2012-10-05T02:00:00Z,30.6671,-87.9365,24.07,1111122 
DISL,ioos:station:DISL:MHPA:1,2012-10-05T02:30:00Z,30.6671,-87.9365,23.7,1111122 
DISL,ioos:station:DISL:MHPA:1,2012-10-05T03:00:00Z,30.6671,-87.9365,23.2,1111122 
DISL,ioos:station:DISL:MHPA:1,2012-10-05T03:30:00Z,30.6671,-87.9365,23.02,1111122 
DISL,ioos:station:DISL:MHPA:1,2012-10-05T04:00:00Z,30.6671,-87.9365,22.71,1111122 
DISL,ioos:station:DISL:MHPA:1,2012-10-05T04:30:00Z,30.6671,-87.9365,22.56,1111122 
DISL,ioos:station:DISL:MHPA:1,2012-10-05T05:00:00Z,30.6671,-87.9365,22.44,1111122 
DISL,ioos:station:DISL:MHPA:1,2012-10-05T05:30:00Z,30.6671,-87.9365,21.92,1111122 
DISL,ioos:station:DISL:MHPA:1,2012-10-05T06:00:00Z,30.6671,-87.9365,21.07,1111122 
DISL,ioos:station:DISL:MHPA:1,2012-10-05T06:30:00Z,30.6671,-87.9365,20.87,1111122 
DISL,ioos:station:DISL:MHPA:1,2012-10-05T07:00:00Z,30.6671,-87.9365,20.51,1111122 
DISL,ioos:station:DISL:MHPA:1,2012-10-05T07:30:00Z,30.6671,-87.9365,20.45,1111122 
DISL,ioos:station:DISL:MHPA:1,2012-10-05T08:00:00Z,30.6671,-87.9365,20.27,1111122 
DISL,ioos:station:DISL:MHPA:1,2012-10-05T08:30:00Z,30.6671,-87.9365,20.43,1111122 
DISL,ioos:station:DISL:MHPA:1,2012-10-05T09:00:00Z,30.6671,-87.9365,20.54,1111122 
DISL,ioos:station:DISL:MHPA:1,2012-10-05T09:30:00Z,30.6671,-87.9365,19.92,1111122 
DISL,ioos:station:DISL:MHPA:1,2012-10-05T10:00:00Z,30.6671,-87.9365,19.8,1111122 
DISL,ioos:station:DISL:MHPA:1,2012-10-05T10:30:00Z,30.6671,-87.9365,19.56,1111122 
DISL,ioos:station:DISL:MHPA:1,2012-10-05T11:00:00Z,30.6671,-87.9365,19.16,1111122 
DISL,ioos:station:DISL:MHPA:1,2012-10-05T11:30:00Z,30.6671,-87.9365,19.17,1111122 
DISL,ioos:station:DISL:MHPA:1,2012-10-05T12:00:00Z,30.6671,-87.9365,18.8,1111122 
DISL,ioos:station:DISL:MHPA:1,2012-10-05T12:30:00Z,30.6671,-87.9365,19.66,1111122 
DISL,ioos:station:DISL:MHPA:1,2012-10-05T13:00:00Z,30.6671,-87.9365,20.14,1111122 
DISL,ioos:station:DISL:MHPA:1,2012-10-05T13:30:00Z,30.6671,-87.9365,20.91,1111122 
DISL,ioos:station:DISL:MHPA:1,2012-10-05T14:00:00Z,30.6671,-87.9365,22.23,1111122 
DISL,ioos:station:DISL:MHPA:1,2012-10-05T14:30:00Z,30.6671,-87.9365,23.34,1111122 
DISL,ioos:station:DISL:MHPA:1,2012-10-05T15:00:00Z,30.6671,-87.9365,24.61,1111122 
DISL,ioos:station:DISL:MHPA:1,2012-10-05T15:30:00Z,30.6671,-87.9365,25.4,1111122 
DISL,ioos:station:DISL:MHPA:1,2012-10-05T16:00:00Z,30.6671,-87.9365,26.21,1111122 
DISL,ioos:station:DISL:MHPA:1,2012-10-05T16:30:00Z,30.6671,-87.9365,26.84,1111122 
DISL,ioos:station:DISL:MHPA:1,2012-10-05T17:00:00Z,30.6671,-87.9365,26.95,1111122 
DISL,ioos:station:DISL:MHPA:1,2012-10-05T17:30:00Z,30.6671,-87.9365,27.68,1111122 
DISL,ioos:station:DISL:MHPA:1,2012-10-05T18:00:00Z,30.6671,-87.9365,28.79,1111122 
DISL,ioos:station:DISL:MHPA:1,2012-10-05T18:30:00Z,30.6671,-87.9365,29.07,1111122 
DISL,ioos:station:DISL:MHPA:1,2012-10-05T19:00:00Z,30.6671,-87.9365,29.44,1111122 
DISL,ioos:station:DISL:MHPA:1,2012-10-05T19:30:00Z,30.6671,-87.9365,29.32,1111122 
DISL,ioos:station:DISL:MHPA:1,2012-10-05T20:00:00Z,30.6671,-87.9365,28.77,1111122 
DISL,ioos:station:DISL:MHPA:1,2012-10-05T20:30:00Z,30.6671,-87.9365,28.83,1111122 
DISL,ioos:station:DISL:MHPA:1,2012-10-05T21:00:00Z,30.6671,-87.9365,28.8,1111122 
DISL,ioos:station:DISL:MHPA:1,2012-10-05T21:30:00Z,30.6671,-87.9365,28.73,1111122 
DISL,ioos:station:DISL:MHPA:1,2012-10-05T22:00:00Z,30.6671,-87.9365,28.25,1111122 
DISL,ioos:station:DISL:MHPA:1,2012-10-05T22:30:00Z,30.6671,-87.9365,28.03,1111122 
DISL,ioos:station:DISL:MHPA:1,2012-10-05T23:00:00Z,30.6671,-87.9365,27.45,1111122 
DISL,ioos:station:DISL:MHPA:1,2012-10-05T23:30:00Z,30.6671,-87.9365,26.71,1111122 
DISL,ioos:station:DISL:MHPA:1,2012-10-06T00:00:00Z,30.6671,-87.9365,26.37,1111122 
DISL,ioos:station:DISL:MHPA:1,2012-10-06T00:30:00Z,30.6671,-87.9365,26.46,1111122 
DISL,ioos:station:DISL:MHPA:1,2012-10-06T01:00:00Z,30.6671,-87.9365,26.11,1111122 
DISL,ioos:station:DISL:MHPA:1,2012-10-06T01:30:00Z,30.6671,-87.9365,25.96,1111122 
DISL,ioos:station:DISL:MHPA:1,2012-10-06T02:00:00Z,30.6671,-87.9365,25.94,1111122 
DISL,ioos:station:DISL:MHPA:1,2012-10-06T02:30:00Z,30.6671,-87.9365,25.57,1111122 
DISL,ioos:station:DISL:MHPA:1,2012-10-06T03:00:00Z,30.6671,-87.9365,25.45,1111122 
DISL,ioos:station:DISL:MHPA:1,2012-10-06T03:30:00Z,30.6671,-87.9365,25.39,1111122 
DISL,ioos:station:DISL:MHPA:1,2012-10-06T04:00:00Z,30.6671,-87.9365,25.28,1111122 
DISL,ioos:station:DISL:MHPA:1,2012-10-06T04:30:00Z,30.6671,-87.9365,24.82,1111122 
DISL,ioos:station:DISL:MHPA:1,2012-10-06T05:00:00Z,30.6671,-87.9365,23.97,1111122 
DISL,ioos:station:DISL:MHPA:1,2012-10-06T05:30:00Z,30.6671,-87.9365,23.81,1111122 
DISL,ioos:station:DISL:MHPA:1,2012-10-06T06:00:00Z,30.6671,-87.9365,23.46,1111122 
DISL,ioos:station:DISL:MHPA:1,2012-10-06T06:30:00Z,30.6671,-87.9365,23.62,1111122 
DISL,ioos:station:DISL:MHPA:1,2012-10-06T07:00:00Z,30.6671,-87.9365,23.38,1111122 
DISL,ioos:station:DISL:MHPA:1,2012-10-06T07:30:00Z,30.6671,-87.9365,23.01,1111122 
DISL,ioos:station:DISL:MHPA:1,2012-10-06T08:00:00Z,30.6671,-87.9365,22.91,1111122 
DISL,ioos:station:DISL:MHPA:1,2012-10-06T08:30:00Z,30.6671,-87.9365,22.81,1111122 
DISL,ioos:station:DISL:MHPA:1,2012-10-06T09:00:00Z,30.6671,-87.9365,22.64,1111122 
DISL,ioos:station:DISL:MHPA:1,2012-10-06T09:30:00Z,30.6671,-87.9365,22.56,1111122 
DISL,ioos:station:DISL:MHPA:1,2012-10-06T10:00:00Z,30.6671,-87.9365,22.29,1111122 
DISL,ioos:station:DISL:MHPA:1,2012-10-06T10:30:00Z,30.6671,-87.9365,22.09,1111122 
DISL,ioos:station:DISL:MHPA:1,2012-10-06T11:00:00Z,30.6671,-87.9365,21.81,1111122 
DISL,ioos:station:DISL:MHPA:1,2012-10-06T11:30:00Z,30.6671,-87.9365,21.64,1111122 
DISL,ioos:station:DISL:MHPA:1,2012-10-06T12:00:00Z,30.6671,-87.9365,21.34,1111122 
DISL,ioos:station:DISL:MHPA:1,2012-10-06T12:30:00Z,30.6671,-87.9365,21.8,1111122 
DISL,ioos:station:DISL:MHPA:1,2012-10-06T13:00:00Z,30.6671,-87.9365,22.0,1111122 
DISL,ioos:station:DISL:MHPA:1,2012-10-06T13:30:00Z,30.6671,-87.9365,21.97,1111122 
DISL,ioos:station:DISL:MHPA:1,2012-10-06T14:00:00Z,30.6671,-87.9365,22.26,1111122 
DISL,ioos:station:DISL:MHPA:1,2012-10-06T14:30:00Z,30.6671,-87.9365,23.18,1111122 
DISL,ioos:station:DISL:MHPA:1,2012-10-06T15:00:00Z,30.6671,-87.9365,24.2,1111122 
DISL,ioos:station:DISL:MHPA:1,2012-10-06T15:30:00Z,30.6671,-87.9365,25.3,1111122 
DISL,ioos:station:DISL:MHPA:1,2012-10-06T16:00:00Z,30.6671,-87.9365,26.26,1111122 
DISL,ioos:station:DISL:MHPA:1,2012-10-06T16:30:00Z,30.6671,-87.9365,27.3,1111122 
DISL,ioos:station:DISL:MHPA:1,2012-10-06T17:00:00Z,30.6671,-87.9365,27.96,1111122 
DISL,ioos:station:DISL:MHPA:1,2012-10-06T17:30:00Z,30.6671,-87.9365,28.51,1111122 
DISL,ioos:station:DISL:MHPA:1,2012-10-06T18:00:00Z,30.6671,-87.9365,28.82,1111122 
DISL,ioos:station:DISL:MHPA:1,2012-10-06T18:30:00Z,30.6671,-87.9365,28.8,1111122 
DISL,ioos:station:DISL:MHPA:1,2012-10-06T19:00:00Z,30.6671,-87.9365,29.19,1111122 
DISL,ioos:station:DISL:MHPA:1,2012-10-06T19:30:00Z,30.6671,-87.9365,29.96,1111122 
DISL,ioos:station:DISL:MHPA:1,2012-10-06T20:00:00Z,30.6671,-87.9365,30.04,1111122 
DISL,ioos:station:DISL:MHPA:1,2012-10-06T20:30:00Z,30.6671,-87.9365,30.14,1111122 
DISL,ioos:station:DISL:MHPA:1,2012-10-06T21:00:00Z,30.6671,-87.9365,29.95,1111122 
DISL,ioos:station:DISL:MHPA:1,2012-10-06T21:30:00Z,30.6671,-87.9365,30.18,1111122 
DISL,ioos:station:DISL:MHPA:1,2012-10-06T22:00:00Z,30.6671,-87.9365,30.28,1111122 
DISL,ioos:station:DISL:MHPA:1,2012-10-06T22:30:00Z,30.6671,-87.9365,29.92,1111122 
DISL,ioos:station:DISL:MHPA:1,2012-10-06T23:00:00Z,30.6671,-87.9365,29.16,1111122 
DISL,ioos:station:DISL:MHPA:1,2012-10-06T23:30:00Z,30.6671,-87.9365,27.77,1111122 